#timestamp,LO_Frequency,Hit,StdDev 
1510866015.8,286046996.9,P
1510866035.7,286046996.8,Y
1510866055.5,286047002.6,P
1510866075.4,286047003.6,N
1510866095.2,286047004.0,N
1510866115.0,286047001.3,N
1510866115.9,286047001.3,N
1510866135.8,286047004.2,N
1510866155.6,286047004.1,N
1510866175.4,286047003.7,N
1510866195.3,286047001.3,N
1510866215.1,286047003.7,N
1510866235.9,286047005.9,Y
1510866255.7,286046999.7,P
1510866275.5,286046998.5,N
1510866295.4,286046998.7,N
1510866315.2,286046999.4,N
1510866335.1,286046999.0,N
1510866336.0,286046999.0,N
1510866355.8,286047001.1,N
1510866375.6,286047001.0,N
1510866395.5,286046999.9,N
1510866415.3,286046999.7,N
1510866435.1,286046998.1,N
1510866455.9,286046998.2,N
1510866475.7,286047000.3,N
1510866495.6,286046999.7,N
1510866515.4,286046999.7,N
1510866535.2,286047000.0,N
1510866555.1,286047002.2,N
1510866556.0,286047002.2,N
1510866575.8,286047004.0,Y
1510866595.7,286047001.1,P
1510866615.5,286046998.6,N
1510866635.3,286047002.8,N
1510866655.2,286047000.1,N
1510866675.9,286047002.6,N
1510866695.7,286047001.8,N
1510866715.6,286047002.1,N
1510866735.4,286047000.9,N
1510866755.3,286047000.0,N
1510866775.1,286047000.4,N
1510866776.0,286047000.4,N
1510866795.8,286047002.4,N
1510866815.7,286047002.1,N
1510866835.5,286047004.0,Y
1510866855.3,286047002.1,P
1510866875.2,286047002.8,P
1510866895.0,286047002.7,P
1510866895.9,286047002.7,Y
1510866915.8,286046996.5,P
1510866935.6,286046996.8,N
1510866955.4,286046997.3,N
1510866975.3,286046999.5,N
1510866995.1,286047000.8,N
1510867015.9,286046998.6,N
1510867035.7,286046998.8,N
1510867055.5,286046997.0,N
1510867075.4,286046997.9,N
1510867095.2,286046997.3,N
1510867115.0,286046996.5,N
1510867116.0,286046996.5,N
1510867135.8,286046997.8,N
1510867155.6,286046995.2,N
1510867175.5,286046995.0,N
1510867195.3,286046995.3,N
1510867215.1,286046995.3,N
1510867235.9,286046995.1,N
1510867255.7,286046996.0,N
1510867275.6,286046995.8,N
1510867295.4,286046997.5,N
1510867315.2,286046995.1,N
1510867335.1,286046995.5,N
1510867336.0,286046995.5,N
1510867355.8,286046996.0,N
1510867375.6,286046995.6,N
1510867395.5,286046995.3,N
1510867415.3,286046994.9,N
1510867435.2,286046997.4,N
1510867455.9,286046996.7,N
1510867475.7,286046996.9,N
1510867495.6,286046999.1,N
1510867515.4,286046997.1,N
1510867535.2,286046996.9,N
1510867555.1,286046996.6,N
1510867556.0,286046996.6,N
1510867575.8,286046999.5,N
1510867595.7,286046996.5,Y
1510867615.5,286047001.9,P
1510867635.3,286047000.2,N
1510867655.2,286047000.3,N
1510867675.0,286047002.0,N
1510867675.9,286047002.0,N
1510867695.8,286047000.4,N
1510867715.6,286047002.8,N
1510867735.4,286047000.4,N
1510867755.3,286047000.3,N
1510867775.1,286046998.6,N
1510867795.8,286046996.6,N
1510867815.7,286046998.8,N
1510867835.5,286046999.5,N
1510867855.4,286046996.7,N
1510867875.2,286046998.3,N
1510867895.0,286047001.2,N
1510867895.9,286047001.2,N
1510867915.8,286047001.1,N
1510867935.6,286046998.1,N
1510867955.5,286046998.9,N
1510867975.3,286046998.9,N
1510867995.1,286046999.6,N
1510868015.9,286046996.9,N
1510868035.7,286046996.8,N
1510868055.6,286046997.8,N
1510868075.4,286046998.7,N
1510868095.2,286046998.9,N
1510868115.1,286046998.2,N
1510868116.0,286046998.2,N
1510868135.8,286047000.6,N
1510868155.6,286047000.5,N
1510868175.5,286047000.2,N
1510868195.3,286047002.8,N
1510868215.2,286047000.5,N
1510868235.9,286047000.9,N
1510868255.7,286047001.3,N
1510868275.6,286047001.8,N
1510868295.4,286047000.3,N
1510868315.3,286047000.1,N
1510868335.1,286047000.2,N
1510868336.0,286047000.2,N
1510868355.8,286047004.0,N
1510868375.7,286047001.6,N
1510868395.5,286047003.8,N
1510868415.3,286047002.8,N
1510868435.2,286047001.3,N
1510868455.0,286047002.0,N
1510868455.9,286047002.0,N
1510868475.8,286047002.0,N
1510868495.6,286047001.4,N
1510868515.4,286047003.9,N
1510868535.3,286046999.8,N
1510868555.1,286047002.0,N
1510868575.9,286046999.9,N
1510868595.7,286046999.7,N
1510868615.5,286047002.4,N
1510868635.4,286046999.7,N
1510868655.2,286047000.8,N
1510868675.0,286047000.8,N
1510868676.0,286047000.8,N
1510868695.8,286046998.8,N
1510868715.6,286047000.8,N
1510868735.5,286047001.2,N
1510868755.3,286047000.7,N
1510868775.1,286046999.9,N
1510868795.9,286047000.9,N
1510868815.7,286047002.7,N
1510868835.6,286047001.3,N
1510868855.4,286047002.4,N
1510868875.2,286047002.6,N
1510868895.1,286047002.4,N
1510868896.0,286047002.4,N
1510868915.8,286047002.5,N
1510868935.6,286047001.9,N
1510868955.5,286047004.4,Y
1510868975.3,286047003.8,P
1510868995.2,286047001.3,N
1510869015.9,286046999.7,N
1510869035.7,286047001.4,N
1510869055.6,286047001.8,N
1510869075.4,286047002.4,N
1510869095.2,286046999.8,N
1510869115.1,286047002.2,N
1510869116.0,286047002.2,N
1510869135.8,286047001.6,N
1510869155.7,286047002.4,N
1510869175.5,286047002.3,N
1510869195.3,286047001.9,N
1510869215.2,286046999.9,N
1510869235.0,286047000.4,N
1510869235.9,286047000.4,N
1510869255.8,286047000.9,N
1510869275.6,286046999.8,N
1510869295.4,286047001.5,N
1510869315.3,286047002.5,N
1510869335.1,286047001.2,N
1510869355.8,286047001.1,N
1510869375.7,286046998.6,N
1510869395.5,286047000.6,N
1510869415.4,286047001.2,N
1510869435.2,286047000.8,N
1510869455.0,286047000.2,N
1510869455.9,286047000.2,N
1510869475.8,286047000.6,N
1510869495.6,286046998.1,N
1510869515.4,286047000.5,N
1510869535.3,286047000.3,N
1510869555.1,286046999.7,N
1510869575.9,286047000.3,N
1510869595.7,286047000.3,N
